Notices

What's New in latest Release from April 7th, 2021:

- Updated Glossary, including Speed of Maximum Gust, and Total Hourly Precipitation

- Updated national and regional climate services offices contacts and prices information

- Addition of station inventory lists for 1981-2010, 1971-2000, and 1961-1990 Normals.

If you haven't already, please take our survey and provide feedback about our website: https://eccc.sondage-survey.ca/f/LanguageSelection.aspx?s=442ca660-fcf1-47c0-95a9-59707d6fd709

Hourly Data Report for July 19, 2016

TORONTO CITY
ONTARIO

43°40'00.000" N
79°24'00.000" W
112.50 m
6158355
71508
XTO

Download Data

Hourly Data (July 2016)
Hourly Data Report for July 19, 2016
TIME
LST
Temp Definition
°C
Dew Point Definition
°C
Rel Hum Definition
%
Precip. Amount Definition
mm

Wind Dir Definition
10's deg

Wind Spd Definition
km/h
Visibility Definition
km
Stn Press Definition
kPa
Hmdx Definition


Wind Chill Definition


Weather Definition


00:00 19.7 8.3 48 0.0 LegendMM LegendMM   100.64     LegendNANA
01:00 19.0 7.3 47 0.0 LegendMM LegendMM   100.68     LegendNANA
02:00 18.1 7.8 51 0.0 LegendMM LegendMM   100.72     LegendNANA
03:00 17.3 8.2 55 0.0 LegendMM LegendMM   100.72     LegendNANA
04:00 16.0 8.6 62 0.0 LegendMM LegendMM   100.72     LegendNANA
05:00 16.6 8.8 60 0.0 LegendMM LegendMM   100.73     LegendNANA
06:00 16.3 9.0 62 0.0 LegendMM LegendMM   100.78     LegendNANA
07:00 18.6 8.6 52 0.0 LegendMM LegendMM   100.82     LegendNANA
08:00 21.1 9.1 46 0.0 LegendMM LegendMM   100.89     LegendNANA
09:00 22.1 8.9 43 0.0 LegendMM LegendMM   100.92     LegendNANA
10:00 24.4 9.2 38 0.0 LegendMM LegendMM   100.92 25   LegendNANA
11:00 25.0 8.9 36 0.0 LegendMM LegendMM   100.91 26   LegendNANA
12:00 24.0 8.5 37 0.0 LegendMM LegendMM   100.89 25   LegendNANA
13:00 23.9 7.5 35 0.0 LegendMM LegendMM   100.88     LegendNANA
14:00 25.3 7.7 32 0.0 LegendMM LegendMM   100.85 26   LegendNANA
15:00 25.4 7.7 32 0.0 LegendMM LegendMM   100.84 26   LegendNANA
16:00 25.4 6.3 29 0.0 LegendMM LegendMM   100.84 25   LegendNANA
17:00 24.8 6.6 31 0.0 LegendMM LegendMM   100.83 25   LegendNANA
18:00 24.2 7.0 33 0.0 LegendMM LegendMM   100.81     LegendNANA
19:00 23.0 7.4 37 0.0 LegendMM LegendMM   100.83     LegendNANA
20:00 21.8 6.3 37 0.0 LegendMM LegendMM   100.88     LegendNANA
21:00 20.8 6.1 38 0.0 LegendMM LegendMM   100.93     LegendNANA
22:00 19.7 8.4 48 0.0 LegendMM LegendMM   100.95     LegendNANA
23:00 19.0 8.4 50 0.0 LegendMM LegendMM   101.00     LegendNANA

Notes on Data Quality.

Legend

  • E = Estimated
  • M = Missing
  • NA = Not Available*
  • [empty] = Indicates an unobserved value
Date modified: